| time (UTC) | temp F | wind direction | speed MPH | gust MPH | rain 1hr in | rain 24hr in | rain mn in | humidity % | barometer mb |
| 20260902095505 | 62 | 334 | 0.0 | 2.0 | 0.00 | 0.38 | 0.00 | 94 | 1021.8 |
| 20260902095004 | 62 | 51 | 0.0 | 1.0 | 0.00 | 0.38 | 0.00 | 94 | 1021.6 |
| 20260902094510 | 62 | 221 | 0.0 | 1.0 | 0.00 | 0.38 | 0.00 | 94 | 1021.7 |
| 20260902094007 | 62 | 9 | 0.0 | 3.0 | 0.00 | 0.38 | 0.00 | 94 | 1021.7 |
| 20260902093508 | 62 | 51 | 0.0 | 3.0 | 0.00 | 0.38 | 0.00 | 94 | 1021.7 |
| 20260902093024 | 62 | 9 | 1.0 | 2.0 | 0.00 | 0.38 | 0.00 | 94 | 1021.7 |
| 20260902092507 | 62 | 41 | 1.0 | 3.0 | 0.00 | 0.38 | 0.00 | 94 | 1021.7 |
| 20260902092011 | 62 | 9 | 1.0 | 3.0 | 0.00 | 0.38 | 0.00 | 94 | 1021.6 |
| 20260902091526 | 63 | 93 | 0.0 | 2.0 | 0.00 | 0.38 | 0.00 | 94 | 1021.6 |
| 20260902091012 | 62 | 265 | 0.0 | 1.0 | 0.00 | 0.38 | 0.00 | 94 | 1021.6 |
| 20260902090503 | 63 | 93 | 0.0 | 1.0 | 0.00 | 0.38 | 0.00 | 94 | 1021.4 |
| 20260902090005 | 63 | 265 | 0.0 | 1.0 | 0.00 | 0.38 | 0.00 | 94 | 1021.4 |
| 20260902085502 | 63 | 265 | 0.0 | 3.0 | 0.00 | 0.38 | 0.00 | 94 | 1021.4 |
| 20260902085004 | 63 | 265 | 0.0 | 3.0 | 0.00 | 0.38 | 0.00 | 94 | 1021.3 |
| 20260902084507 | 63 | 316 | 1.0 | 3.0 | 0.00 | 0.38 | 0.00 | 94 | 1021.2 |
| 20260902084004 | 63 | 338 | 1.0 | 3.0 | 0.00 | 0.38 | 0.00 | 94 | 1021.1 |
| 20260902083504 | 63 | 44 | 0.0 | 2.0 | 0.00 | 0.38 | 0.00 | 94 | 1021.2 |
| 20260902083010 | 63 | 51 | 0.0 | 2.0 | 0.00 | 0.38 | 0.00 | 94 | 1021.1 |
| 20260902082506 | 63 | 137 | 0.0 | 2.0 | 0.00 | 0.38 | 0.00 | 94 | 1021.2 |
| 20260902082009 | 63 | 51 | 0.0 | 2.0 | 0.00 | 0.38 | 0.00 | 94 | 1021.3 |
| 20260902081528 | 63 | 93 | 0.0 | 2.0 | 0.00 | 0.38 | 0.00 | 94 | 1021.2 |
| 20260902081017 | 63 | 216 | 0.0 | 2.0 | 0.00 | 0.38 | 0.00 | 94 | 1021.2 |
| 20260902080513 | 63 | 232 | 1.0 | 3.0 | 0.00 | 0.38 | 0.00 | 94 | 1021.2 |
| 20260902080027 | 63 | 232 | 1.0 | 3.0 | 0.00 | 0.38 | 0.00 | 94 | 1021.3 |
| 20260902075515 | 63 | 165 | 1.0 | 4.0 | 0.00 | 0.38 | 0.00 | 94 | 1021.3 |
| 20260902075002 | 63 | 178 | 1.0 | 4.0 | 0.00 | 0.38 | 0.00 | 94 | 1021.4 |
| 20260902074507 | 63 | 51 | 1.0 | 3.0 | 0.00 | 0.38 | 0.00 | 94 | 1021.4 |
| 20260902074003 | 63 | 221 | 1.0 | 2.0 | 0.00 | 0.38 | 0.00 | 94 | 1021.4 |
| 20260902073506 | 63 | 51 | 0.0 | 2.0 | 0.00 | 0.38 | 0.00 | 94 | 1021.3 |
| 20260902073010 | 63 | 93 | 1.0 | 2.0 | 0.00 | 0.38 | 0.00 | 94 | 1021.3 |
| 20260902072508 | 63 | 93 | 0.0 | 2.0 | 0.00 | 0.38 | 0.00 | 94 | 1021.4 |
| 20260902072005 | 63 | 265 | 0.0 | 2.0 | 0.00 | 0.38 | 0.00 | 94 | 1021.3 |
| 20260902071514 | 63 | 298 | 0.0 | 2.0 | 0.00 | 0.38 | 0.00 | 94 | 1021.3 |
| 20260902071009 | 63 | 265 | 0.0 | 2.0 | 0.00 | 0.38 | 0.00 | 94 | 1021.3 |
| 20260902070507 | 63 | 178 | 0.0 | 1.0 | 0.00 | 0.38 | 0.00 | 94 | 1021.4 |
| 20260902070009 | 63 | 178 | 0.0 | 2.0 | 0.00 | 0.38 | 0.00 | 94 | 1021.4 |
| 20260902065503 | 63 | 93 | 0.0 | 2.0 | 0.00 | 0.38 | 0.00 | 94 | 1021.5 |
| 20260902065014 | 63 | 67 | 0.0 | 2.0 | 0.00 | 0.38 | 0.00 | 94 | 1021.6 |
| 20260902064508 | 63 | 80 | 0.0 | 2.0 | 0.00 | 0.38 | 0.00 | 94 | 1021.6 |
| 20260902064002 | 63 | 51 | 0.0 | 2.0 | 0.00 | 0.38 | 0.00 | 94 | 1021.6 |
| 20260902063516 | 63 | 41 | 1.0 | 2.0 | 0.00 | 0.38 | 0.00 | 94 | 1021.5 |
| 20260902063008 | 63 | 51 | 0.0 | 2.0 | 0.00 | 0.38 | 0.00 | 94 | 1021.5 |
| 20260902062505 | 63 | 51 | 0.0 | 2.0 | 0.00 | 0.38 | 0.00 | 94 | 1021.5 |
| 20260902062006 | 63 | 265 | 0.0 | 2.0 | 0.00 | 0.38 | 0.00 | 94 | 1021.4 |
| 20260902061527 | 63 | 205 | 0.0 | 1.0 | 0.00 | 0.38 | 0.00 | 94 | 1021.4 |
| 20260902061010 | 63 | 9 | 0.0 | 1.0 | 0.00 | 0.38 | 0.00 | 94 | 1021.4 |
| 20260902060508 | 63 | 221 | 0.0 | 2.0 | 0.00 | 0.38 | 0.00 | 94 | 1021.4 |
| 20260902060018 | 63 | 238 | 0.0 | 2.0 | 0.00 | 0.38 | 0.00 | 94 | 1021.4 |
| 20260902055513 | 63 | 41 | 0.0 | 2.0 | 0.00 | 0.38 | 0.00 | 94 | 1021.3 |
| 20260902055013 | 63 | 44 | 1.0 | 2.0 | 0.00 | 0.38 | 0.00 | 94 | 1021.2 |
| 20260902054504 | 63 | 80 | 0.0 | 2.0 | 0.00 | 0.38 | 0.00 | 94 | 1021.2 |
| 20260902054003 | 63 | 93 | 0.0 | 2.0 | 0.00 | 0.38 | 0.00 | 94 | 1021.2 |
| 20260902053502 | 63 | 9 | 0.0 | 2.0 | 0.00 | 0.38 | 0.00 | 94 | 1021.1 |
| 20260902053005 | 63 | 93 | 0.0 | 2.0 | 0.00 | 0.38 | 0.00 | 94 | 1021.1 |
| 20260902052517 | 63 | 291 | 0.0 | 3.0 | 0.00 | 0.38 | 0.00 | 94 | 1021.1 |
| 20260902052003 | 63 | 238 | 1.0 | 4.0 | 0.00 | 0.38 | 0.00 | 94 | 1021.0 |
| 20260902051509 | 63 | 265 | 1.0 | 4.0 | 0.00 | 0.38 | 0.00 | 94 | 1021.0 |
| 20260902051007 | 63 | 209 | 2.0 | 3.0 | 0.00 | 0.38 | 0.00 | 94 | 1020.9 |
| 20260902050507 | 63 | 214 | 1.0 | 2.0 | 0.00 | 0.38 | 0.00 | 94 | 1020.7 |
| 20260902050016 | 63 | 221 | 1.0 | 2.0 | 0.00 | 0.38 | 0.00 | 94 | 1020.7 |
| 20260902045508 | 63 | 205 | 0.0 | 2.0 | 0.00 | 0.38 | 0.00 | 94 | 1020.7 |
| 20260902045011 | 63 | 212 | 1.0 | 2.0 | 0.00 | 0.38 | 0.00 | 94 | 1020.7 |
| 20260902044527 | 63 | 178 | 1.0 | 2.0 | 0.00 | 0.38 | 0.00 | 94 | 1020.6 |
| 20260902044013 | 63 | 212 | 0.0 | 2.0 | 0.00 | 0.38 | 0.00 | 94 | 1020.7 |
| 20260902043511 | 63 | 215 | 1.0 | 2.0 | 0.00 | 0.38 | 0.00 | 94 | 1020.6 |
| 20260902043042 | 63 | 165 | 0.0 | 2.0 | 0.00 | 0.38 | 0.00 | 94 | 1020.4 |
| 20260902042505 | 63 | 9 | 0.0 | 2.0 | 0.00 | 0.38 | 0.00 | 94 | 1020.5 |
| 20260902042002 | 63 | 9 | 0.0 | 3.0 | 0.00 | 0.38 | 0.00 | 94 | 1020.5 |
| 20260902041508 | 63 | 334 | 0.0 | 3.0 | 0.00 | 0.38 | 0.00 | 94 | 1020.5 |
| 20260902041003 | 63 | 9 | 1.0 | 3.0 | 0.00 | 0.38 | 0.00 | 93 | 1020.3 |
| 20260902040509 | 63 | 9 | 1.0 | 3.0 | 0.00 | 0.38 | 0.00 | 93 | 1020.2 |
| 20260902040014 | 63 | 9 | 1.0 | 2.0 | 0.00 | 0.38 | 0.00 | 93 | 1020.1 |
| 20260902035513 | 63 | 9 | 0.0 | 2.0 | 0.00 | 0.38 | 0.38 | 93 | 1020.0 |
| 20260902035008 | 63 | 9 | 1.0 | 2.0 | 0.00 | 0.38 | 0.38 | 93 | 1020.0 |
| 20260902034520 | 63 | 9 | 1.0 | 2.0 | 0.00 | 0.38 | 0.38 | 93 | 1019.9 |
| 20260902034012 | 63 | 9 | 0.0 | 3.0 | 0.00 | 0.38 | 0.38 | 93 | 1020.0 |
| 20260902033511 | 63 | 9 | 1.0 | 3.0 | 0.00 | 0.38 | 0.38 | 93 | 1020.0 |
| 20260902033027 | 63 | 41 | 1.0 | 3.0 | 0.00 | 0.38 | 0.38 | 93 | 1019.9 |
| 20260902032516 | 63 | 19 | 2.0 | 3.0 | 0.00 | 0.38 | 0.38 | 93 | 1019.9 |
| 20260902032021 | 63 | 265 | 0.0 | 2.0 | 0.00 | 0.38 | 0.38 | 93 | 1019.8 |
| 20260902031537 | 63 | 67 | 0.0 | 2.0 | 0.00 | 0.38 | 0.38 | 93 | 1019.9 |
| 20260902031006 | 63 | 34 | 1.0 | 3.0 | 0.00 | 0.38 | 0.38 | 93 | 1019.9 |
| 20260902030502 | 63 | 9 | 0.0 | 3.0 | 0.00 | 0.38 | 0.38 | 93 | 1020.0 |
| 20260902030008 | 63 | 265 | 0.0 | 3.0 | 0.00 | 0.38 | 0.38 | 93 | 1019.9 |
| 20260902025506 | 63 | 119 | 1.0 | 4.0 | 0.00 | 0.38 | 0.38 | 93 | 1019.9 |
| 20260902025010 | 63 | 247 | 2.0 | 4.0 | 0.00 | 0.38 | 0.38 | 93 | 1019.9 |
| 20260902024515 | 64 | 238 | 2.0 | 4.0 | 0.00 | 0.38 | 0.38 | 93 | 1019.9 |
| 20260902024007 | 64 | 221 | 0.0 | 3.0 | 0.00 | 0.38 | 0.38 | 93 | 1019.8 |
| 20260902023509 | 64 | 257 | 1.0 | 5.0 | 0.00 | 0.38 | 0.38 | 93 | 1019.9 |
| 20260902023032 | 64 | 325 | 1.0 | 7.0 | 0.00 | 0.38 | 0.38 | 93 | 1019.9 |
| 20260902022510 | 64 | 238 | 2.0 | 7.0 | 0.00 | 0.38 | 0.38 | 93 | 1019.8 |
| 20260902022015 | 64 | 212 | 4.0 | 7.0 | 0.00 | 0.38 | 0.38 | 93 | 1019.7 |
| 20260902021527 | 64 | 234 | 2.0 | 4.0 | 0.00 | 0.38 | 0.38 | 93 | 1019.9 |
| 20260902021013 | 64 | 153 | 0.0 | 3.0 | 0.00 | 0.38 | 0.38 | 93 | 1020.0 |
| 20260902020514 | 64 | 250 | 2.0 | 3.0 | 0.00 | 0.38 | 0.38 | 93 | 1020.0 |
| 20260902020032 | 64 | 250 | 1.0 | 3.0 | 0.00 | 0.38 | 0.38 | 93 | 1019.9 |
| 20260902015516 | 64 | 325 | 1.0 | 3.0 | 0.00 | 0.38 | 0.38 | 93 | 1020.0 |
| 20260902015006 | 64 | 309 | 0.0 | 2.0 | 0.00 | 0.38 | 0.38 | 93 | 1019.9 |
| 20260902014518 | 64 | 51 | 1.0 | 3.0 | 0.00 | 0.38 | 0.38 | 93 | 1019.8 |
| 20260902014008 | 64 | 178 | 0.0 | 3.0 | 0.00 | 0.38 | 0.38 | 93 | 1019.8 |
| 20260902013507 | 64 | 9 | 1.0 | 3.0 | 0.00 | 0.38 | 0.38 | 93 | 1019.9 |
| 20260902013020 | 64 | 51 | 1.0 | 3.0 | 0.00 | 0.38 | 0.38 | 93 | 1019.8 |
| 20260902012513 | 64 | 22 | 0.0 | 3.0 | 0.00 | 0.38 | 0.38 | 93 | 1019.8 |
| 20260902012013 | 64 | 34 | 0.0 | 3.0 | 0.00 | 0.38 | 0.38 | 93 | 1019.9 |
| 20260902011524 | 64 | 319 | 2.0 | 3.0 | 0.00 | 0.38 | 0.38 | 93 | 1019.8 |
| 20260902011013 | 64 | 51 | 0.0 | 4.0 | 0.00 | 0.38 | 0.38 | 93 | 1019.8 |
| 20260902010514 | 64 | 178 | 0.0 | 4.0 | 0.00 | 0.38 | 0.38 | 93 | 1019.7 |
| 20260902010028 | 64 | 298 | 0.0 | 3.0 | 0.00 | 0.38 | 0.38 | 93 | 1019.7 |
| 20260902005519 | 64 | 291 | 0.0 | 2.0 | 0.01 | 0.38 | 0.38 | 93 | 1019.7 |
| 20260902005016 | 64 | 9 | 0.0 | 4.0 | 0.01 | 0.38 | 0.38 | 93 | 1019.5 |
| 20260902004535 | 64 | 282 | 1.0 | 4.0 | 0.01 | 0.38 | 0.38 | 93 | 1019.4 |
| 20260902004018 | 64 | 319 | 1.0 | 3.0 | 0.01 | 0.38 | 0.38 | 93 | 1019.3 |
| 20260902003507 | 65 | 325 | 1.0 | 4.0 | 0.01 | 0.38 | 0.38 | 93 | 1019.2 |
| 20260902003013 | 65 | 178 | 0.0 | 4.0 | 0.01 | 0.38 | 0.38 | 93 | 1019.2 |
| 20260902002511 | 65 | 146 | 1.0 | 4.0 | 0.01 | 0.38 | 0.38 | 93 | 1019.1 |
| 20260902002009 | 65 | 309 | 1.0 | 4.0 | 0.01 | 0.38 | 0.38 | 93 | 1019.0 |
| 20260902001521 | 65 | 190 | 1.0 | 4.0 | 0.01 | 0.38 | 0.38 | 93 | 1018.9 |
| 20260902001013 | 65 | 158 | 2.0 | 4.0 | 0.01 | 0.38 | 0.38 | 93 | 1018.8 |
| 20260902000511 | 65 | 221 | 1.0 | 4.0 | 0.02 | 0.38 | 0.38 | 93 | 1018.6 |
| 20260902000031 | 65 | 221 | 1.0 | 4.0 | 0.02 | 0.38 | 0.38 | 93 | 1018.8 |
| 20260901235512 | 65 | 247 | 2.0 | 4.0 | 0.01 | 0.37 | 0.37 | 93 | 1018.7 |
| 20260901235019 | 65 | 229 | 0.0 | 3.0 | 0.01 | 0.37 | 0.37 | 93 | 1018.5 |
| 20260901234531 | 65 | 291 | 0.0 | 5.0 | 0.01 | 0.37 | 0.37 | 93 | 1018.5 |
| 20260901234015 | 65 | 238 | 1.0 | 5.0 | 0.01 | 0.37 | 0.37 | 93 | 1018.4 |
| 20260901233519 | 66 | 146 | 2.0 | 5.0 | 0.01 | 0.37 | 0.37 | 93 | 1018.3 |
| 20260901233031 | 66 | 249 | 2.0 | 3.0 | 0.01 | 0.37 | 0.37 | 93 | 1018.5 |
| 20260901232517 | 66 | 247 | 2.0 | 5.0 | 0.01 | 0.37 | 0.37 | 93 | 1018.5 |
| 20260901232017 | 66 | 217 | 3.0 | 5.0 | 0.01 | 0.37 | 0.37 | 93 | 1018.5 |
| 20260901231519 | 66 | 232 | 2.0 | 7.0 | 0.01 | 0.37 | 0.37 | 93 | 1018.5 |
| 20260901231012 | 66 | 234 | 4.0 | 8.0 | 0.01 | 0.37 | 0.37 | 93 | 1018.5 |
| 20260901230510 | 66 | 247 | 4.0 | 8.0 | 0.00 | 0.36 | 0.36 | 93 | 1018.5 |
| 20260901230024 | 66 | 247 | 1.0 | 3.0 | 0.00 | 0.36 | 0.36 | 93 | 1018.4 |
| 20260901225512 | 66 | 26 | 0.0 | 3.0 | 0.00 | 0.36 | 0.36 | 93 | 1018.4 |
| 20260901225014 | 66 | 51 | 0.0 | 3.0 | 0.00 | 0.36 | 0.36 | 93 | 1018.4 |
| 20260901224530 | 66 | 9 | 0.0 | 3.0 | 0.00 | 0.36 | 0.36 | 93 | 1018.5 |
| 20260901224016 | 66 | 9 | 0.0 | 4.0 | 0.00 | 0.36 | 0.36 | 93 | 1018.5 |
| 20260901223513 | 66 | 38 | 1.0 | 4.0 | 0.00 | 0.36 | 0.36 | 93 | 1018.4 |
| 20260901223030 | 66 | 9 | 1.0 | 3.0 | 0.00 | 0.36 | 0.36 | 93 | 1018.5 |
| 20260901222517 | 66 | 34 | 1.0 | 4.0 | 0.00 | 0.36 | 0.36 | 93 | 1018.5 |
| 20260901222016 | 66 | 9 | 1.0 | 5.0 | 0.00 | 0.36 | 0.36 | 93 | 1018.5 |
| 20260901221601 | 66 | 17 | 3.0 | 4.0 | 0.00 | 0.36 | 0.36 | 93 | 1018.4 |
| 20260901221001 | 66 | 18 | 3.0 | 4.0 | 0.00 | 0.36 | 0.36 | 93 | 1018.3 |
| 20260901220502 | 66 | 24 | 2.0 | 4.0 | 0.00 | 0.36 | 0.36 | 93 | 1018.3 |
| 20260901220004 | 66 | 51 | 0.0 | 4.0 | 0.00 | 0.36 | 0.36 | 93 | 1018.2 |
| 20260901215502 | 66 | 93 | 0.0 | 7.0 | 0.00 | 0.36 | 0.36 | 93 | 1018.2 |
| 20260901215005 | 66 | 80 | 2.0 | 7.0 | 0.00 | 0.36 | 0.36 | 93 | 1018.2 |
| 20260901214503 | 66 | 22 | 1.0 | 5.0 | 0.00 | 0.36 | 0.36 | 93 | 1018.2 |
| 20260901214002 | 66 | 30 | 2.0 | 9.0 | 0.00 | 0.36 | 0.36 | 93 | 1018.2 |
| 20260901213503 | 66 | 34 | 3.0 | 9.0 | 0.00 | 0.36 | 0.36 | 93 | 1018.1 |
| 20260901213019 | 66 | 9 | 3.0 | 5.0 | 0.00 | 0.36 | 0.36 | 93 | 1018.1 |
| 20260901212511 | 67 | 26 | 2.0 | 5.0 | 0.00 | 0.36 | 0.36 | 93 | 1018.1 |
| 20260901212006 | 67 | 319 | 1.0 | 5.0 | 0.00 | 0.36 | 0.36 | 93 | 1018.1 |
| 20260901211516 | 67 | 26 | 2.0 | 5.0 | 0.00 | 0.36 | 0.36 | 93 | 1018.1 |
| 20260901211007 | 67 | 316 | 1.0 | 8.0 | 0.00 | 0.36 | 0.36 | 93 | 1018.1 |
| 20260901210507 | 67 | 32 | 2.0 | 8.0 | 0.00 | 0.36 | 0.36 | 93 | 1018.0 |
| 20260901210019 | 67 | 48 | 3.0 | 6.0 | 0.00 | 0.36 | 0.36 | 93 | 1017.9 |
| 20260901205502 | 67 | 19 | 1.0 | 5.0 | 0.00 | 0.36 | 0.36 | 93 | 1018.1 |
| 20260901205001 | 66 | 26 | 2.0 | 6.0 | 0.00 | 0.36 | 0.36 | 93 | 1018.0 |
| 20260901204512 | 66 | 67 | 2.0 | 6.0 | 0.00 | 0.36 | 0.36 | 93 | 1017.9 |
| 20260901204004 | 66 | 47 | 4.0 | 8.0 | 0.00 | 0.36 | 0.36 | 93 | 1017.9 |
| 20260901203503 | 66 | 47 | 4.0 | 8.0 | 0.00 | 0.36 | 0.36 | 93 | 1017.9 |
| 20260901203008 | 66 | 9 | 4.0 | 7.0 | 0.00 | 0.36 | 0.36 | 93 | 1017.9 |
| 20260901202502 | 66 | 31 | 4.0 | 8.0 | 0.00 | 0.36 | 0.36 | 93 | 1017.8 |
| 20260901202004 | 66 | 43 | 4.0 | 10.0 | 0.00 | 0.36 | 0.36 | 93 | 1017.8 |
| 20260901201510 | 66 | 18 | 4.0 | 10.0 | 0.00 | 0.36 | 0.36 | 93 | 1017.8 |
| 20260901201007 | 66 | 21 | 5.0 | 12.0 | 0.00 | 0.36 | 0.36 | 93 | 1017.8 |
| 20260901200509 | 66 | 19 | 5.0 | 12.0 | 0.00 | 0.36 | 0.36 | 93 | 1017.7 |
| 20260901200029 | 66 | 338 | 4.0 | 10.0 | 0.00 | 0.36 | 0.36 | 94 | 1017.7 |
| 20260901195507 | 66 | 342 | 4.0 | 10.0 | 0.00 | 0.36 | 0.36 | 94 | 1017.7 |
| 20260901195007 | 66 | 45 | 4.0 | 9.0 | 0.00 | 0.36 | 0.36 | 94 | 1017.7 |
| 20260901194525 | 66 | 36 | 4.0 | 9.0 | 0.00 | 0.36 | 0.36 | 94 | 1017.8 |
| 20260901194006 | 66 | 38 | 2.0 | 10.0 | 0.00 | 0.36 | 0.36 | 94 | 1017.7 |
| 20260901193503 | 66 | 346 | 4.0 | 12.0 | 0.00 | 0.36 | 0.36 | 94 | 1017.8 |
| 20260901193004 | 66 | 19 | 6.0 | 12.0 | 0.00 | 0.36 | 0.36 | 95 | 1017.7 |
| 20260901192503 | 66 | 18 | 5.0 | 11.0 | 0.00 | 0.36 | 0.36 | 95 | 1017.7 |
| 20260901192003 | 66 | 44 | 4.0 | 9.0 | 0.00 | 0.36 | 0.36 | 94 | 1017.8 |
| 20260901191518 | 66 | 63 | 5.0 | 11.0 | 0.00 | 0.36 | 0.36 | 94 | 1017.8 |
| 20260901191002 | 66 | 20 | 5.0 | 11.0 | 0.00 | 0.36 | 0.36 | 95 | 1017.8 |
| 20260901190513 | 66 | 17 | 7.0 | 13.0 | 0.00 | 0.36 | 0.36 | 94 | 1017.8 |
| 20260901190020 | 66 | 51 | 5.0 | 13.0 | 0.01 | 0.36 | 0.36 | 95 | 1017.8 |
| 20260901185508 | 66 | 45 | 7.0 | 13.0 | 0.01 | 0.36 | 0.36 | 95 | 1017.8 |
| 20260901185008 | 65 | 44 | 6.0 | 12.0 | 0.01 | 0.36 | 0.36 | 95 | 1017.8 |
| 20260901184518 | 65 | 9 | 6.0 | 12.0 | 0.01 | 0.36 | 0.36 | 95 | 1017.8 |
| 20260901184010 | 66 | 38 | 7.0 | 11.0 | 0.02 | 0.36 | 0.36 | 95 | 1017.8 |
| 20260901183510 | 65 | 32 | 5.0 | 11.0 | 0.02 | 0.36 | 0.36 | 95 | 1017.9 |
| 20260901183033 | 65 | 33 | 3.0 | 9.0 | 0.02 | 0.36 | 0.36 | 95 | 1017.9 |
| 20260901182512 | 65 | 346 | 5.0 | 9.0 | 0.02 | 0.36 | 0.36 | 95 | 1017.9 |
| 20260901182003 | 65 | 9 | 4.0 | 9.0 | 0.02 | 0.36 | 0.36 | 95 | 1017.9 |
| 20260901181505 | 65 | 64 | 2.0 | 9.0 | 0.03 | 0.36 | 0.36 | 95 | 1017.9 |
| 20260901181002 | 65 | 347 | 5.0 | 9.0 | 0.03 | 0.36 | 0.36 | 95 | 1017.9 |
| 20260901180502 | 65 | 43 | 4.0 | 10.0 | 0.03 | 0.36 | 0.36 | 95 | 1017.9 |
| 20260901180010 | 65 | 19 | 3.0 | 10.0 | 0.02 | 0.35 | 0.35 | 95 | 1017.8 |
| 20260901175513 | 65 | 34 | 6.0 | 10.0 | 0.02 | 0.35 | 0.35 | 95 | 1017.8 |
| 20260901175006 | 65 | 48 | 5.0 | 10.0 | 0.02 | 0.35 | 0.35 | 95 | 1017.8 |
| 20260901174529 | 64 | 51 | 5.0 | 10.0 | 0.02 | 0.35 | 0.35 | 95 | 1017.7 |
| 20260901174008 | 64 | 26 | 6.0 | 15.0 | 0.01 | 0.34 | 0.34 | 95 | 1017.7 |
| 20260901173509 | 64 | 34 | 5.0 | 15.0 | 0.02 | 0.34 | 0.34 | 95 | 1017.7 |
| 20260901173022 | 64 | 93 | 3.0 | 10.0 | 0.02 | 0.34 | 0.34 | 95 | 1017.7 |
| 20260901172516 | 64 | 25 | 5.0 | 11.0 | 0.02 | 0.34 | 0.34 | 94 | 1017.7 |
| 20260901172013 | 64 | 38 | 6.0 | 11.0 | 0.02 | 0.34 | 0.34 | 95 | 1017.6 |
| 20260901171527 | 64 | 63 | 7.0 | 11.0 | 0.01 | 0.33 | 0.33 | 94 | 1017.6 |
| 20260901171015 | 64 | 38 | 5.0 | 10.0 | 0.02 | 0.33 | 0.33 | 94 | 1017.6 |
| 20260901170504 | 64 | 36 | 4.0 | 6.0 | 0.03 | 0.33 | 0.33 | 95 | 1017.6 |
| 20260901170008 | 64 | 49 | 3.0 | 5.0 | 0.04 | 0.33 | 0.33 | 94 | 1017.6 |
| 20260901165503 | 64 | 51 | 3.0 | 4.0 | 0.05 | 0.33 | 0.33 | 94 | 1017.7 |
| 20260901165007 | 64 | 9 | 0.0 | 5.0 | 0.05 | 0.33 | 0.33 | 94 | 1017.6 |
| 20260901164514 | 64 | 282 | 1.0 | 6.0 | 0.05 | 0.33 | 0.33 | 94 | 1017.6 |
| 20260901164007 | 64 | 298 | 2.0 | 11.0 | 0.06 | 0.33 | 0.33 | 94 | 1017.6 |
| 20260901163509 | 64 | 338 | 2.0 | 12.0 | 0.06 | 0.32 | 0.32 | 94 | 1017.5 |
| 20260901163020 | 64 | 9 | 7.0 | 12.0 | 0.08 | 0.32 | 0.32 | 94 | 1017.4 |
| 20260901162510 | 64 | 33 | 5.0 | 16.0 | 0.10 | 0.32 | 0.32 | 94 | 1017.2 |
| 20260901162011 | 64 | 40 | 10.0 | 16.0 | 0.10 | 0.32 | 0.32 | 94 | 1017.2 |
| 20260901161536 | 64 | 28 | 8.0 | 13.0 | 0.10 | 0.32 | 0.32 | 94 | 1016.9 |
| 20260901161016 | 64 | 84 | 8.0 | 13.0 | 0.09 | 0.31 | 0.31 | 94 | 1016.8 |
| 20260901160512 | 64 | 54 | 6.0 | 10.0 | 0.08 | 0.30 | 0.30 | 94 | 1017.0 |
| 20260901160029 | 64 | 43 | 3.0 | 8.0 | 0.07 | 0.29 | 0.29 | 94 | 1017.4 |
| 20260901155516 | 64 | 22 | 4.0 | 9.0 | 0.06 | 0.28 | 0.28 | 94 | 1017.7 |
| 20260901155017 | 63 | 36 | 3.0 | 10.0 | 0.06 | 0.28 | 0.28 | 94 | 1017.8 |
| 20260901154511 | 64 | 29 | 5.0 | 10.0 | 0.06 | 0.28 | 0.28 | 94 | 1017.8 |
| 20260901154006 | 64 | 36 | 5.0 | 10.0 | 0.05 | 0.27 | 0.27 | 94 | 1017.8 |
| 20260901153509 | 64 | 9 | 5.0 | 12.0 | 0.04 | 0.26 | 0.26 | 93 | 1017.7 |
| 20260901153054 | 64 | 22 | 6.0 | 12.0 | 0.02 | 0.24 | 0.24 | 93 | 1017.7 |
| 20260901152517 | 63 | 25 | 6.0 | 12.0 | 0.00 | 0.22 | 0.22 | 93 | 1017.7 |
| 20260901152009 | 64 | 20 | 5.0 | 12.0 | 0.00 | 0.22 | 0.22 | 93 | 1017.7 |
| 20260901151538 | 63 | 21 | 6.0 | 12.0 | 0.00 | 0.22 | 0.22 | 93 | 1017.7 |
| 20260901151011 | 64 | 18 | 6.0 | 13.0 | 0.00 | 0.22 | 0.22 | 93 | 1017.6 |
| 20260901150512 | 64 | 43 | 8.0 | 13.0 | 0.00 | 0.22 | 0.22 | 93 | 1017.6 |
| 20260901150036 | 64 | 34 | 6.0 | 13.0 | 0.00 | 0.22 | 0.22 | 93 | 1017.6 |
| 20260901145512 | 64 | 44 | 8.0 | 13.0 | 0.00 | 0.22 | 0.22 | 93 | 1017.4 |
| 20260901145017 | 65 | 67 | 9.0 | 14.0 | 0.00 | 0.22 | 0.22 | 93 | 1017.3 |
| 20260901144540 | 65 | 24 | 8.0 | 14.0 | 0.00 | 0.22 | 0.22 | 94 | 1017.3 |
| 20260901144014 | 65 | 50 | 7.0 | 12.0 | 0.00 | 0.22 | 0.22 | 94 | 1017.2 |
| 20260901143516 | 65 | 41 | 2.0 | 11.0 | 0.00 | 0.22 | 0.22 | 94 | 1017.3 |
| 20260901143011 | 65 | 25 | 5.0 | 11.0 | 0.00 | 0.22 | 0.22 | 94 | 1017.2 |
| 20260901142506 | 65 | 18 | 5.0 | 11.0 | 0.00 | 0.22 | 0.22 | 94 | 1017.3 |
| 20260901142006 | 65 | 328 | 6.0 | 11.0 | 0.00 | 0.22 | 0.22 | 94 | 1017.3 |
| 20260901141530 | 65 | 24 | 6.0 | 11.0 | 0.00 | 0.22 | 0.22 | 94 | 1017.3 |
| 20260901141010 | 65 | 26 | 6.0 | 11.0 | 0.00 | 0.22 | 0.22 | 94 | 1017.6 |
| 20260901140520 | 65 | 40 | 5.0 | 11.0 | 0.00 | 0.22 | 0.22 | 94 | 1017.7 |
| 20260901140029 | 65 | 43 | 6.0 | 9.0 | 0.00 | 0.22 | 0.22 | 94 | 1017.8 |
| 20260901135511 | 65 | 36 | 4.0 | 9.0 | 0.00 | 0.22 | 0.22 | 95 | 1017.8 |
| 20260901135015 | 64 | 19 | 5.0 | 9.0 | 0.00 | 0.22 | 0.22 | 94 | 1017.9 |
| 20260901134529 | 65 | 33 | 4.0 | 6.0 | 0.00 | 0.22 | 0.22 | 95 | 1017.9 |
| 20260901134014 | 64 | 337 | 4.0 | 7.0 | 0.00 | 0.22 | 0.22 | 94 | 1017.8 |
| 20260901133516 | 64 | 61 | 3.0 | 7.0 | 0.00 | 0.22 | 0.22 | 94 | 1017.8 |
| 20260901133032 | 64 | 298 | 2.0 | 7.0 | 0.00 | 0.22 | 0.22 | 94 | 1017.9 |
| 20260901132515 | 64 | 9 | 1.0 | 8.0 | 0.00 | 0.22 | 0.22 | 94 | 1017.9 |
| 20260901132022 | 64 | 24 | 3.0 | 8.0 | 0.00 | 0.22 | 0.22 | 94 | 1018.0 |
| 20260901131627 | 64 | 19 | 3.0 | 8.0 | 0.00 | 0.22 | 0.22 | 94 | 1018.0 |
| 20260901131009 | 64 | 26 | 4.0 | 8.0 | 0.00 | 0.22 | 0.22 | 94 | 1017.9 |
| 20260901130511 | 64 | 46 | 5.0 | 8.0 | 0.01 | 0.22 | 0.22 | 94 | 1018.0 |
| 20260901130023 | 64 | 327 | 4.0 | 9.0 | 0.01 | 0.22 | 0.22 | 94 | 1018.0 |
| 20260901125514 | 64 | 13 | 4.0 | 9.0 | 0.01 | 0.22 | 0.22 | 94 | 1018.0 |
| 20260901125012 | 64 | 36 | 4.0 | 8.0 | 0.01 | 0.22 | 0.22 | 94 | 1017.9 |
| 20260901124527 | 64 | 39 | 4.0 | 8.0 | 0.02 | 0.22 | 0.22 | 94 | 1018.1 |
| 20260901124014 | 64 | 47 | 3.0 | 10.0 | 0.02 | 0.22 | 0.22 | 94 | 1018.3 |
| 20260901123512 | 64 | 41 | 4.0 | 10.0 | 0.03 | 0.22 | 0.22 | 94 | 1018.3 |
| 20260901123031 | 64 | 23 | 5.0 | 10.0 | 0.04 | 0.22 | 0.22 | 94 | 1018.2 |
| 20260901122514 | 64 | 11 | 5.0 | 10.0 | 0.05 | 0.22 | 0.22 | 94 | 1018.2 |
| 20260901122015 | 64 | 26 | 4.0 | 12.0 | 0.07 | 0.22 | 0.22 | 94 | 1018.2 |
| 20260901121533 | 64 | 342 | 6.0 | 12.0 | 0.09 | 0.22 | 0.22 | 94 | 1018.1 |
| 20260901121016 | 63 | 15 | 5.0 | 12.0 | 0.10 | 0.22 | 0.22 | 94 | 1018.1 |
| 20260901120518 | 64 | 46 | 8.0 | 12.0 | 0.11 | 0.21 | 0.21 | 94 | 1018.1 |
| 20260901120021 | 64 | 25 | 5.0 | 8.0 | 0.13 | 0.21 | 0.21 | 94 | 1018.1 |
| 20260901115516 | 64 | 9 | 3.0 | 7.0 | 0.14 | 0.21 | 0.21 | 94 | 1018.2 |
| 20260901115011 | 64 | 28 | 2.0 | 7.0 | 0.15 | 0.21 | 0.21 | 94 | 1018.3 |
| 20260901114530 | 64 | 9 | 3.0 | 8.0 | 0.16 | 0.20 | 0.20 | 94 | 1018.2 |
| 20260901114014 | 64 | 28 | 3.0 | 11.0 | 0.17 | 0.20 | 0.20 | 94 | 1018.3 |
| 20260901113503 | 64 | 347 | 3.0 | 11.0 | 0.17 | 0.19 | 0.19 | 93 | 1018.4 |
| 20260901113005 | 64 | 319 | 3.0 | 10.0 | 0.17 | 0.18 | 0.18 | 93 | 1018.4 |
| 20260901112502 | 64 | 341 | 4.0 | 12.0 | 0.16 | 0.17 | 0.17 | 93 | 1018.4 |
| 20260901112004 | 65 | 19 | 5.0 | 12.0 | 0.14 | 0.15 | 0.15 | 93 | 1018.3 |
| 20260901111516 | 65 | 19 | 6.0 | 12.0 | 0.13 | 0.13 | 0.13 | 93 | 1018.0 |
| 20260901111005 | 66 | 337 | 7.0 | 12.0 | 0.12 | 0.12 | 0.12 | 94 | 1018.1 |
| 20260901110512 | 66 | 45 | 3.0 | 7.0 | 0.10 | 0.10 | 0.10 | 94 | 1018.1 |
| 20260901110014 | 66 | 36 | 3.0 | 5.0 | 0.08 | 0.08 | 0.08 | 94 | 1018.0 |
| 20260901105516 | 66 | 39 | 3.0 | 5.0 | 0.07 | 0.07 | 0.07 | 93 | 1017.9 |
| 20260901105011 | 66 | 55 | 2.0 | 4.0 | 0.06 | 0.06 | 0.06 | 93 | 1017.9 |
| 20260901104522 | 66 | 41 | 1.0 | 4.0 | 0.04 | 0.04 | 0.04 | 93 | 1017.9 |
| 20260901104012 | 66 | 19 | 2.0 | 3.0 | 0.03 | 0.03 | 0.03 | 93 | 1017.8 |
| 20260901103518 | 66 | 22 | 1.0 | 3.0 | 0.02 | 0.02 | 0.02 | 93 | 1017.7 |
| 20260901103028 | 66 | 17 | 2.0 | 3.0 | 0.01 | 0.01 | 0.01 | 93 | 1017.5 |
| 20260901102516 | 66 | 67 | 1.0 | 3.0 | 0.01 | 0.01 | 0.01 | 92 | 1017.5 |
| 20260901102016 | 66 | 61 | 0.0 | 3.0 | 0.01 | 0.01 | 0.01 | 92 | 1017.5 |
| 20260901101516 | 66 | 178 | 0.0 | 3.0 | 0.00 | 0.00 | 0.00 | 92 | 1017.4 |
| 20260901101006 | 67 | 243 | 1.0 | 3.0 | 0.00 | 0.00 | 0.00 | 92 | 1017.4 |
| 20260901100509 | 67 | 238 | 2.0 | 3.0 | 0.00 | 0.00 | 0.00 | 92 | 1017.4 |
| 20260901100015 | 66 | 221 | 0.0 | 2.0 | 0.00 | 0.00 | 0.00 | 91 | 1017.3 |